Kezdőlap
METAR-TAF:

METAR-TAF

Repülőterek :

Webster City Municipal Airport

Webster City, Iowa, Amerikai Egyesült Államok

földrajzi szélesség: 42-26N, földrajzi hosszúság: 093-52W, magasság: 342 m

Jelenlegi meteorológiai megfigyelések

A jelentés 16 perccel ezelõtt készült, 13:15 UTC
Délnyugati szél 3 kt
Hőmérséklet 26°C
Páratartalom 94%
Légköri nyomás 1017 hPa
Látótávolság: 12.9 km
Derült ég

METAR: KEBS 281315Z AUTO 23003KT 8SM CLR 26/25 A3003 RMK AO2

Idő: 08:31 (13:31 UTC)


TAF: hiányzik

Meteorológiai megfigyelések és előrejelzések több, mint 4000 repülőtéren (METAR és TAF jelentéseket).

A térképen piros és sárga pontok jelzik az elérhető meteorológiai állomásokat.

Mozgassa az egeret a pont fölött, hogy megjelenjen az állomás neve.

Azután kattintson az időjárási megfigyelések és előrejelzések megtekintéséhez.

A térkép megváltoztatása: kattintson a fekete keresztel jelölt zöld gombra ráközelítéshez, a vonallal jelölt zöld gombra távolításhoz, vagy a zöld nyilakra a szomszédos térképek eléréséhez.


METAR-TAF: